• In Belarus
  • List of Countries
  • For 7 days
  • Water Temperature
  • Satellite Maps
  • Weather Map
  • Weather Widgets
  • user-avatar
    Login

    Hourly Weather Zobnino

    Today, 22 September, Saturday

    Time Temperature Precipitation Wind Pressure Humidity
    00:00 +16°C° 0 mm 2 mps 750 mmHg 91%
    01:00 +16°C° 0 mm 2 mps 750 mmHg 92%
    02:00 +15°C° 0 mm 2 mps 750 mmHg 93%
    03:00 +14°C° 0 mm 3 mps 750 mmHg 93%
    04:00 +14°C° 0 mm 3 mps 749 mmHg 94%
    05:00 +14°C° 0 mm 3 mps 749 mmHg 95%
    06:00 +16°C° 0 mm 3 mps 749 mmHg 91%
    07:00 +18°C° 0 mm 4 mps 749 mmHg 87%
    08:00 +19°C° 0 mm 4 mps 748 mmHg 83%
    09:00 +21°C° 0 mm 5 mps 748 mmHg 74%
    10:00 +22°C° 0 mm 5 mps 748 mmHg 66%
    11:00 +24°C° 0 mm 6 mps 747 mmHg 58%
    12:00 +24°C° 0 mm 6 mps 747 mmHg 55%
    13:00 +26°C° 0 mm 6 mps 747 mmHg 53%
    14:00 +26°C° 0 mm 6 mps 746 mmHg 50%
    15:00 +25°C° 0 mm 5 mps 746 mmHg 55%
    16:00 +23°C° 0 mm 4 mps 745 mmHg 60%
    17:00 +21°C° 0 mm 4 mps 745 mmHg 65%
    18:00 +21°C° 0.1 mm 4 mps 745 mmHg 69%
    19:00 +20°C° 0.1 mm 4 mps 745 mmHg 72%
    20:00 +19°C° 0.1 mm 4 mps 745 mmHg 76%
    21:00 +18°C° 0.2 mm 4 mps 744 mmHg 79%
    22:00 +17°C° 0.2 mm 3 mps 744 mmHg 83%
    23:00 +16°C° 0.2 mm 3 mps 744 mmHg 87%

    Tomorrow, 23 September, Sunday

    Time Temperature Precipitation Wind Pressure Humidity
    00:00 +14°C° 0.3 mm 3 mps 744 mmHg 88%
    01:00 +13°C° 0.3 mm 3 mps 744 mmHg 90%
    02:00 +13°C° 0.3 mm 3 mps 743 mmHg 91%
    03:00 +12°C° 0.2 mm 3 mps 743 mmHg 90%
    04:00 +12°C° 0.2 mm 3 mps 743 mmHg 90%
    05:00 +12°C° 0.2 mm 2 mps 743 mmHg 89%
    06:00 +11°C° 0.4 mm 3 mps 742 mmHg 90%
    07:00 +11°C° 0.4 mm 3 mps 742 mmHg 90%
    08:00 +10°C° 0.4 mm 3 mps 742 mmHg 90%
    09:00 +10°C° 1.2 mm 3 mps 742 mmHg 91%
    10:00 +10°C° 1.2 mm 3 mps 742 mmHg 92%
    11:00 +8°C° 1.2 mm 4 mps 742 mmHg 92%
    12:00 +10°C° 0.5 mm 4 mps 742 mmHg 89%
    13:00 +11°C° 0.5 mm 3 mps 743 mmHg 87%
    14:00 +11°C° 0.5 mm 3 mps 743 mmHg 84%
    15:00 +11°C° 0 mm 3 mps 743 mmHg 85%
    16:00 +11°C° 0 mm 3 mps 743 mmHg 85%
    17:00 +11°C° 0 mm 3 mps 743 mmHg 86%
    18:00 +10°C° 0.1 mm 3 mps 743 mmHg 87%
    19:00 +10°C° 0.1 mm 3 mps 743 mmHg 89%
    20:00 +9°C° 0.1 mm 3 mps 743 mmHg 91%
    21:00 +9°C° 0 mm 3 mps 743 mmHg 91%
    22:00 +8°C° 0 mm 3 mps 743 mmHg 92%
    23:00 +8°C° 0 mm 2 mps 743 mmHg 93%

    Day after tomorrow, 24 September, Monday

    Time Temperature Precipitation Wind Pressure Humidity
    00:00 +7°C° 0 mm 2 mps 743 mmHg 93%
    01:00 +7°C° 0 mm 2 mps 743 mmHg 94%
    02:00 +7°C° 0 mm 2 mps 743 mmHg 95%
    03:00 +6°C° 0 mm 2 mps 743 mmHg 95%
    04:00 +5°C° 0 mm 3 mps 743 mmHg 96%
    05:00 +5°C° 0 mm 3 mps 743 mmHg 96%
    06:00 +7°C° 0 mm 3 mps 743 mmHg 93%
    07:00 +8°C° 0 mm 3 mps 743 mmHg 90%
    08:00 +9°C° 0 mm 3 mps 743 mmHg 86%
    09:00 +10°C° 0 mm 3 mps 743 mmHg 81%
    10:00 +11°C° 0 mm 3 mps 743 mmHg 76%
    11:00 +12°C° 0 mm 4 mps 743 mmHg 70%
    12:00 +13°C° 0 mm 3 mps 743 mmHg 67%
    13:00 +13°C° 0 mm 3 mps 742 mmHg 63%
    14:00 +15°C° 0 mm 2 mps 742 mmHg 60%
    15:00 +14°C° 0.1 mm 2 mps 742 mmHg 64%
    16:00 +13°C° 0.1 mm 2 mps 741 mmHg 69%
    17:00 +12°C° 0.1 mm 2 mps 741 mmHg 73%
    18:00 +10°C° 0.4 mm 2 mps 740 mmHg 77%
    19:00 +10°C° 0.4 mm 3 mps 739 mmHg 82%
    20:00 +8°C° 0.4 mm 4 mps 739 mmHg 86%
    21:00 +8°C° 1.1 mm 4 mps 737 mmHg 87%
    22:00 +8°C° 1.1 mm 5 mps 736 mmHg 87%
    23:00 +7°C° 1.1 mm 6 mps 735 mmHg 88%

    25 September, Tuesday

    Time Temperature Precipitation Wind Pressure Humidity
    00:00 +7°C° 2.5 mm 6 mps 734 mmHg 89%
    01:00 +7°C° 2.5 mm 6 mps 732 mmHg 90%
    02:00 +6°C° 2.5 mm 7 mps 731 mmHg 91%
    03:00 +7°C° 1.4 mm 6 mps 730 mmHg 91%
    04:00 +7°C° 1.4 mm 5 mps 729 mmHg 92%
    05:00 +8°C° 1.4 mm 4 mps 728 mmHg 92%
    06:00 +8°C° 0.5 mm 4 mps 728 mmHg 91%
    07:00 +8°C° 0.5 mm 4 mps 728 mmHg 91%
    08:00 +9°C° 0.5 mm 3 mps 728 mmHg 90%
    09:00 +9°C° 0.6 mm 3 mps 728 mmHg 90%
    10:00 +9°C° 0.6 mm 3 mps 728 mmHg 90%
    11:00 +9°C° 0.6 mm 3 mps 729 mmHg 89%
    12:00 +7°C° 0.7 mm 4 mps 729 mmHg 89%
    13:00 +7°C° 0.7 mm 5 mps 730 mmHg 89%
    14:00 +7°C° 0.7 mm 6 mps 730 mmHg 89%
    15:00 +6°C° 0.5 mm 7 mps 731 mmHg 88%
    16:00 +5°C° 0.5 mm 8 mps 732 mmHg 87%
    17:00 +5°C° 0.5 mm 8 mps 733 mmHg 86%
    18:00 +5°C° 0.3 mm 8 mps 733 mmHg 85%
    19:00 +5°C° 0.3 mm 8 mps 734 mmHg 84%
    20:00 +4°C° 0.3 mm 8 mps 735 mmHg 83%
    21:00 +4°C° 0.2 mm 8 mps 735 mmHg 83%
    22:00 +4°C° 0.2 mm 8 mps 736 mmHg 83%
    23:00 +4°C° 0.2 mm 8 mps 736 mmHg 83%

    26 September, Wednesday

    Time Temperature Precipitation Wind Pressure Humidity
    00:00 +4°C° 0.1 mm 7 mps 737 mmHg 83%
    01:00 +3°C° 0.1 mm 7 mps 738 mmHg 83%
    02:00 +3°C° 0.1 mm 7 mps 738 mmHg 82%
    03:00 +3°C° 0 mm 7 mps 739 mmHg 83%
    04:00 +2°C° 0 mm 7 mps 739 mmHg 83%
    05:00 +2°C° 0 mm 7 mps 740 mmHg 84%
    06:00 +2°C° 0.2 mm 7 mps 741 mmHg 83%
    07:00 +2°C° 0.2 mm 7 mps 741 mmHg 83%
    08:00 +3°C° 0.2 mm 6 mps 742 mmHg 83%
    09:00 +3°C° 0.2 mm 6 mps 743 mmHg 81%
    10:00 +3°C° 0.2 mm 6 mps 743 mmHg 79%
    11:00 +4°C° 0.2 mm 6 mps 744 mmHg 77%
    12:00 +5°C° 0.1 mm 6 mps 745 mmHg 74%
    13:00 +5°C° 0.1 mm 6 mps 746 mmHg 70%
    14:00 +7°C° 0.1 mm 6 mps 746 mmHg 66%
    15:00 +6°C° 0 mm 5 mps 747 mmHg 68%
    16:00 +6°C° 0 mm 4 mps 748 mmHg 69%
    17:00 +5°C° 0 mm 3 mps 748 mmHg 71%
    18:00 +4°C° 0 mm 3 mps 749 mmHg 73%
    19:00 +3°C° 0 mm 3 mps 749 mmHg 75%
    20:00 +2°C° 0 mm 3 mps 750 mmHg 77%
    21:00 +2°C° 0 mm 3 mps 750 mmHg 80%
    22:00 +1°C° 0 mm 3 mps 751 mmHg 82%
    23:00 +1°C° 0 mm 3 mps 751 mmHg 85%

    27 September, Thursday

    Time Temperature Precipitation Wind Pressure Humidity
    00:00 +1°C° 0 mm 2 mps 751 mmHg 85%
    01:00 +1°C° 0 mm 2 mps 751 mmHg 84%
    02:00 +1°C° 0 mm 2 mps 751 mmHg 84%
    03:00 0°C° 0 mm 3 mps 751 mmHg 82%
    04:00 0°C° 0 mm 3 mps 750 mmHg 80%
    05:00 -1°C° 0 mm 4 mps 750 mmHg 78%
    06:00 +1°C° 0 mm 5 mps 749 mmHg 75%
    07:00 +2°C° 0 mm 5 mps 748 mmHg 72%
    08:00 +3°C° 0 mm 6 mps 748 mmHg 69%
    09:00 +4°C° 0.3 mm 7 mps 747 mmHg 71%
    10:00 +4°C° 0.3 mm 7 mps 746 mmHg 72%
    11:00 +5°C° 0.3 mm 8 mps 745 mmHg 74%
    12:00 +5°C° 1.1 mm 8 mps 744 mmHg 78%
    13:00 +5°C° 1.1 mm 8 mps 743 mmHg 82%
    14:00 +5°C° 1.1 mm 9 mps 742 mmHg 85%
    15:00 +5°C° 1.2 mm 9 mps 741 mmHg 86%
    16:00 +5°C° 1.2 mm 9 mps 740 mmHg 87%
    17:00 +6°C° 1.2 mm 8 mps 740 mmHg 88%
    18:00 +6°C° 0.6 mm 8 mps 739 mmHg 88%
    19:00 +7°C° 0.6 mm 8 mps 739 mmHg 88%
    20:00 +7°C° 0.6 mm 8 mps 738 mmHg 88%
    21:00 +9°C° 0.3 mm 8 mps 738 mmHg 89%
    22:00 +9°C° 0.3 mm 7 mps 738 mmHg 89%
    23:00 +9°C° 0.3 mm 7 mps 738 mmHg 89%
    Show more